,,PA_Meas_PMT16A,,PR_Meas_QMR101_102,,RH_Meas_QMH101,,SR_Meas_QMS101,,TA_Meas_QMH101,,GenWind,,GenWind,
time,status,PA,status,PR,status,RH,status,SR,status,TA,status,DirAvg,status,SpdAvg,
2017-01-12, 16:33:04,VALID,918.925,VALID,0,INVALID,128.455,VALID,135.054,VALID,18.8658,VALID,290,VALID,1.31875,
2017-01-12, 16:34:04,VALID,918.873,VALID,0,INVALID,128.706,VALID,135.591,VALID,18.8073,VALID,26,VALID,2.69297,
2017-01-12, 16:56:04,VALID,919.039,VALID,0,INVALID,129.476,VALID,138.492,VALID,18.5525,VALID,12,VALID,1.22695,
2017-01-12, 16:57:04,VALID,919.013,VALID,0,INVALID,129.56,VALID,147.624,VALID,18.6109,VALID,354,VALID,0.719531,
2017-01-12, 16:58:04,VALID,919.034,VALID,0,INVALID,129.59,VALID,158.476,VALID,18.6124,VALID,344,VALID,1.0082,
2017-01-12, 16:59:04,VALID,919.009,VALID,0,INVALID,129.56,VALID,172.336,VALID,18.572,VALID,326,VALID,1.32422,
2017-01-12, 17:00:04,VALID,918.992,VALID,0,INVALID,129.575,VALID,179.642,VALID,18.6124,VALID,349,VALID,1.00039,
2017-01-12, 17:01:04,VALID,919.009,VALID,0,INVALID,129.499,VALID,181.253,VALID,18.5914,VALID,18,VALID,1.3793,
2017-01-12, 17:02:04,VALID,919.011,VALID,0,INVALID,129.514,VALID,194.576,VALID,18.6694,VALID,2,VALID,0.709375,
2017-01-12, 17:03:04,VALID,919.005,VALID,0,INVALID,129.552,VALID,210.585,VALID,18.6694,VALID,335,VALID,1.2793,
2017-01-12, 17:04:04,VALID,918.995,VALID,0,INVALID,129.484,VALID,228.312,VALID,18.7293,VALID,22,VALID,1.06914,
2017-01-12, 17:05:04,VALID,918.994,VALID,0,INVALID,129.552,VALID,247.33,VALID,18.7669,VALID,335,VALID,0,
2017-01-12, 17:06:04,VALID,918.949,VALID,0,INVALID,129.522,VALID,258.611,VALID,18.7864,VALID,37,VALID,0,
2017-01-12, 17:07:04,VALID,918.953,VALID,0,INVALID,129.545,VALID,265.702,VALID,18.8839,VALID,35,VALID,0,
2017-01-12, 17:08:04,VALID,918.907,VALID,0,INVALID,129.613,VALID,272.686,VALID,18.9229,VALID,347,VALID,0,
2017-01-12, 17:09:04,VALID,918.953,VALID,0,INVALID,129.423,VALID,278.487,VALID,18.8644,VALID,6,VALID,0,
2017-01-12, 17:10:04,VALID,918.947,VALID,0,INVALID,129.423,VALID,280.851,VALID,18.9619,VALID,348,VALID,0,
2017-01-12, 17:11:04,VALID,918.905,VALID,0,INVALID,129.385,VALID,287.942,VALID,18.9814,VALID,345,VALID,1.10664,
2017-01-12, 17:12:04,VALID,918.875,VALID,0,INVALID,129.415,VALID,302.125,VALID,19.0398,VALID,31,VALID,1.66992,
2017-01-12, 17:13:04,VALID,918.866,VALID,0,INVALID,129.392,VALID,307.926,VALID,19.0593,VALID,15,VALID,1.07422,
2017-01-12, 17:14:04,VALID,918.877,VALID,0,INVALID,129.423,VALID,318.133,VALID,19.0983,VALID,4,VALID,1.00547,
2017-01-12, 17:15:04,VALID,918.851,VALID,0,INVALID,129.034,VALID,313.084,VALID,19.0398,VALID,342,VALID,0.758203,
2017-01-12, 17:16:04,VALID,918.833,VALID,0,INVALID,129.118,VALID,320.927,VALID,19.1178,VALID,13,VALID,0.918359,
2017-01-12, 17:17:04,VALID,918.818,VALID,0,INVALID,128.775,VALID,342.415,VALID,19.0579,VALID,353,VALID,2.10938,
2017-01-12, 17:18:04,VALID,918.807,VALID,0,INVALID,128.104,VALID,346.713,VALID,19.0398,VALID,346,VALID,0.986328,
2017-01-12, 17:19:04,VALID,918.8,VALID,0,INVALID,128.554,VALID,360.68,VALID,19.0983,VALID,333,VALID,0.222656,
2017-01-12, 17:20:04,VALID,918.787,VALID,0,INVALID,128.744,VALID,376.474,VALID,19.1749,VALID,355,VALID,0.928906,
2017-01-12, 17:21:04,VALID,918.757,VALID,0,INVALID,128.188,VALID,429.765,VALID,19.1568,VALID,33,VALID,1.08281,
2017-01-12, 17:22:04,VALID,918.716,VALID,0,INVALID,127.517,VALID,425.145,VALID,19.1178,VALID,37,VALID,1.0332,
2017-01-12, 17:23:04,VALID,918.733,VALID,0,INVALID,128.096,VALID,413.434,VALID,19.1554,VALID,98,VALID,0.410937,
2017-01-12, 17:24:04,VALID,918.74,VALID,0,INVALID,128.089,VALID,484.774,VALID,19.2153,VALID,334,VALID,0,
2017-01-12, 17:25:04,VALID,918.713,VALID,0,INVALID,128.432,VALID,510.883,VALID,19.3113,VALID,98,VALID,0,
2017-01-12, 17:26:04,VALID,918.73,VALID,0,INVALID,129.072,VALID,516.147,VALID,19.5663,VALID,67,VALID,0,
2017-01-12, 17:27:04,VALID,918.691,VALID,0,INVALID,128.958,VALID,471.452,VALID,19.6833,VALID,30,VALID,1.43008,
2017-01-12, 17:28:04,VALID,918.701,VALID,0,INVALID,126.511,VALID,593.72,VALID,19.5843,VALID,52,VALID,1.51016,
2017-01-12, 17:29:04,VALID,918.686,VALID,0,INVALID,128.691,VALID,555.041,VALID,19.7988,VALID,4,VALID,1.91602,
2017-01-12, 17:30:04,VALID,918.676,VALID,0,INVALID,128.447,VALID,536.239,VALID,19.9158,VALID,15,VALID,1.34219,
2017-01-12, 17:31:04,VALID,918.633,VALID,0,INVALID,125.07,VALID,541.503,VALID,19.9368,VALID,355,VALID,1.24063,
2017-01-12, 17:32:04,VALID,918.605,VALID,0,INVALID,124.33,VALID,593.72,VALID,19.9953,VALID,346,VALID,0,
2017-01-12, 17:33:04,VALID,918.624,VALID,0,INVALID,125.184,VALID,430.946,VALID,20.1139,VALID,328,VALID,0.682031,
2017-01-12, 17:34:04,VALID,918.588,VALID,0,INVALID,123.553,VALID,499.924,VALID,20.0733,VALID,3,VALID,0,
2017-01-12, 17:35:04,VALID,918.547,VALID,0,INVALID,125.527,VALID,465.65,VALID,20.1318,VALID,353,VALID,0.0417969,
2017-01-12, 17:36:04,VALID,918.534,VALID,0,INVALID,127.738,VALID,430.517,VALID,20.3464,VALID,322,VALID,0,
2017-01-12, 17:37:04,VALID,918.501,VALID,0,INVALID,126.015,VALID,467.154,VALID,20.3253,VALID,257,VALID,0,
2017-01-12, 17:38:04,VALID,918.482,VALID,0,INVALID,121.685,VALID,452.112,VALID,20.3074,VALID,269,VALID,0.0417969,
2017-01-12, 17:39:04,VALID,918.459,VALID,0,INVALID,126.526,VALID,439.112,VALID,20.4244,VALID,8,VALID,0,
2017-01-12, 17:40:04,VALID,918.425,VALID,0,INVALID,122.851,VALID,376.259,VALID,20.4634,VALID,316,VALID,0,
2017-01-12, 17:41:04,VALID,918.417,VALID,0,INVALID,114.732,VALID,416.872,VALID,20.5009,VALID,274,VALID,0,
2017-01-12, 17:42:04,VALID,918.42,VALID,0,VALID,99.0968,VALID,399.359,VALID,20.4423,VALID,280,VALID,0,
2017-01-12, 17:43:04,VALID,918.418,VALID,0,VALID,103.191,VALID,400.433,VALID,20.4049,VALID,260,VALID,0,
2017-01-12, 17:44:04,VALID,918.414,VALID,0,VALID,103.518,VALID,389.044,VALID,20.3464,VALID,280,VALID,0,
2017-01-12, 17:45:04,VALID,918.437,VALID,0,INVALID,117.949,VALID,372.284,VALID,20.2473,VALID,289,VALID,0.0164062,
2017-01-12, 17:46:04,VALID,918.428,VALID,0,INVALID,121.159,VALID,359.391,VALID,20.2293,VALID,7,VALID,0.801953,
2017-01-12, 17:47:04,VALID,918.442,VALID,0,INVALID,125.161,VALID,351.977,VALID,20.3269,VALID,360,VALID,0,
2017-01-12, 17:48:04,VALID,918.463,VALID,0,INVALID,123.103,VALID,360.68,VALID,20.3838,VALID,323,VALID,0,
2017-01-12, 17:49:04,VALID,918.429,VALID,0,INVALID,119.2,VALID,356.812,VALID,20.4439,VALID,354,VALID,0,
2017-01-12, 17:50:04,VALID,918.428,VALID,0,INVALID,124.422,VALID,354.126,VALID,20.5399,VALID,313,VALID,0,
2017-01-12, 17:51:04,VALID,918.428,VALID,0,INVALID,119.764,VALID,356.49,VALID,20.5984,VALID,346,VALID,0,
2017-01-12, 17:52:04,VALID,918.38,VALID,0,INVALID,124.887,VALID,342.093,VALID,20.7739,VALID,3,VALID,0,
2017-01-12, 17:53:04,VALID,918.401,VALID,0,INVALID,118.27,VALID,363.473,VALID,20.8129,VALID,325,VALID,0,
2017-01-12, 17:54:04,VALID,918.363,VALID,0,INVALID,111.881,VALID,386.036,VALID,20.7934,INVALID,360,VALID,0,
2017-01-12, 17:55:04,VALID,918.356,VALID,0,INVALID,120.305,VALID,387.11,VALID,20.8324,VALID,11,VALID,0,
2017-01-12, 17:56:04,VALID,918.368,VALID,0,INVALID,117.111,VALID,402.367,VALID,20.891,VALID,313,VALID,0.560938,
2017-01-12, 17:57:04,VALID,918.315,VALID,0,VALID,103.114,VALID,366.589,VALID,20.9105,VALID,294,VALID,0,
2017-01-12, 17:58:04,VALID,918.354,VALID,0,INVALID,119.07,VALID,358.424,VALID,20.9105,VALID,4,VALID,0,
2017-01-12, 17:59:04,VALID,918.295,VALID,0,INVALID,122.18,VALID,370.887,VALID,20.9674,VALID,3,VALID,0,
2017-01-12, 18:00:04,VALID,918.317,VALID,0,INVALID,109.282,VALID,378.515,VALID,21.0064,VALID,4,VALID,0,
2017-01-12, 18:01:04,VALID,918.328,VALID,0,INVALID,120.785,VALID,364.225,VALID,21.0454,VALID,330,VALID,0.0121094,
2017-01-12, 18:02:04,VALID,918.318,VALID,0,VALID,102.108,VALID,449.641,VALID,21.0259,VALID,5,VALID,0.396875,
2017-01-12, 18:03:04,VALID,918.3,VALID,0,INVALID,115.975,VALID,379.375,VALID,21.008,VALID,17,VALID,0.994922,
2017-01-12, 18:04:04,VALID,918.336,VALID,0,INVALID,117.462,VALID,396.995,VALID,21.008,VALID,343,VALID,0,
2017-01-12, 18:05:04,VALID,918.319,VALID,0,INVALID,121.228,VALID,385.391,VALID,21.0844,VALID,352,VALID,0.0617188,
2017-01-12, 18:06:04,VALID,918.305,VALID,0,INVALID,116.021,VALID,381.953,VALID,21.2015,VALID,1,VALID,0.0121094,
2017-01-12, 18:07:04,VALID,918.3,VALID,0,VALID,98.7156,VALID,371.746,VALID,21.2405,VALID,344,VALID,0.341406,
2017-01-12, 18:08:04,VALID,918.258,VALID,0,INVALID,113.658,VALID,375.507,VALID,21.3575,VALID,7,VALID,0,
2017-01-12, 18:09:04,VALID,918.229,VALID,0,VALID,104,VALID,367.771,VALID,21.4534,VALID,42,VALID,0,
2017-01-12, 18:10:04,VALID,918.24,VALID,0,VALID,101.552,VALID,359.176,VALID,21.5331,VALID,35,VALID,0.29375,
2017-01-12, 18:11:04,VALID,918.235,VALID,0,VALID,104,VALID,355.953,VALID,21.6534,VALID,16,VALID,0,
2017-01-12, 18:12:04,VALID,918.17,VALID,0,VALID,89.3236,VALID,356.06,VALID,21.5347,VALID,18,VALID,1.46836,
2017-01-12, 18:13:04,VALID,918.164,VALID,0,VALID,93.7223,VALID,362.721,VALID,21.5347,VALID,1,VALID,0.172656,
2017-01-12, 18:14:04,VALID,918.187,VALID,0,VALID,100.4,VALID,364.011,VALID,21.5932,VALID,25,VALID,0,
2017-01-12, 18:15:04,VALID,918.166,VALID,0,INVALID,120.336,VALID,365.3,VALID,21.6908,VALID,17,VALID,0,
2017-01-12, 18:16:04,VALID,918.154,VALID,0,VALID,102.504,VALID,364.978,VALID,21.8095,VALID,3,VALID,0,
2017-01-12, 18:17:04,VALID,918.154,VALID,0,VALID,89.2931,VALID,365.73,VALID,21.8469,VALID,19,VALID,0,
2017-01-12, 18:18:04,VALID,918.145,VALID,0,VALID,91.0541,VALID,337.58,VALID,21.9249,VALID,353,VALID,0,
2017-01-12, 18:19:04,VALID,918.084,VALID,0,VALID,90.8025,VALID,343.382,VALID,21.9444,VALID,359,VALID,0,
2017-01-12, 18:20:04,VALID,918.121,VALID,0,VALID,91.1837,VALID,297.505,VALID,21.9444,VALID,11,VALID,0,
2017-01-12, 18:21:04,VALID,918.124,VALID,0,VALID,90.6577,VALID,293.744,VALID,22.003,VALID,7,VALID,0,
2017-01-12, 18:22:04,VALID,918.107,VALID,0,VALID,86.2361,VALID,293.207,VALID,21.964,VALID,18,VALID,0.0628906,
2017-01-12, 18:23:04,VALID,918.133,VALID,0,VALID,85.1383,VALID,285.256,VALID,21.9266,VALID,213,VALID,0,
2017-01-12, 18:24:04,VALID,918.125,VALID,0,VALID,86.1751,VALID,381.738,VALID,21.8842,VALID,213,VALID,0,
2017-01-12, 18:25:04,VALID,918.106,VALID,0,VALID,85.5576,VALID,376.689,VALID,21.9444,VALID,237,VALID,0,
2017-01-12, 18:26:04,VALID,918.084,VALID,0,VALID,88.5993,VALID,322.538,VALID,21.964,VALID,272,VALID,0,
2017-01-12, 18:27:04,VALID,918.075,VALID,0,VALID,85.8015,VALID,358.316,VALID,21.9038,VALID,304,VALID,0,
2017-01-12, 18:28:04,VALID,918.088,VALID,0,VALID,86.6401,VALID,301.802,VALID,21.8647,VALID,235,VALID,0,
2017-01-12, 18:29:04,VALID,918.086,VALID,0,VALID,86.7697,VALID,292.562,VALID,21.7883,VALID,239,VALID,0,
2017-01-12, 18:30:04,VALID,918.034,VALID,0,VALID,87.5473,VALID,292.562,VALID,21.6323,VALID,232,VALID,0,
2017-01-12, 18:31:04,VALID,918.063,VALID,0,VALID,90.5662,VALID,282.463,VALID,21.5737,VALID,233,VALID,0,
2017-01-12, 18:32:04,VALID,918.026,VALID,0,INVALID,109.388,VALID,314.05,VALID,21.5932,VALID,288,VALID,0,
2017-01-12, 18:33:04,VALID,918.012,VALID,0,VALID,97.3281,VALID,387.433,VALID,21.7103,VALID,285,VALID,0,
2017-01-12, 18:34:04,VALID,917.979,VALID,0,VALID,89.8191,VALID,448.997,VALID,21.8469,VALID,336,VALID,0,
2017-01-12, 18:35:04,VALID,917.953,VALID,0,VALID,88.3401,VALID,452.435,VALID,21.9233,VALID,22,VALID,0,
2017-01-12, 18:36:04,VALID,917.938,VALID,0,VALID,88.8128,VALID,400.433,VALID,21.9038,VALID,293,VALID,0,
2017-01-12, 18:37:04,VALID,917.921,VALID,0,VALID,88.1114,VALID,408.276,VALID,21.8079,VALID,292,VALID,0,
2017-01-12, 18:38:04,VALID,917.949,VALID,0,VALID,92.4187,VALID,416.227,VALID,21.7282,VALID,301,VALID,0,
2017-01-12, 18:39:04,VALID,917.897,VALID,0,VALID,87.8218,VALID,398.284,VALID,21.7883,VALID,286,VALID,0,
2017-01-12, 18:40:04,VALID,917.829,VALID,0,VALID,89.2854,VALID,409.673,VALID,21.7493,VALID,349,VALID,0.489062,
2017-01-12, 18:41:04,VALID,917.822,VALID,0,VALID,104,VALID,429.013,VALID,21.8257,VALID,19,VALID,0,
2017-01-12, 18:42:04,VALID,917.817,VALID,0,VALID,89.6361,VALID,403.764,VALID,21.9054,VALID,163,VALID,0.0195313,
2017-01-12, 18:43:04,VALID,917.79,VALID,0,VALID,96.5887,VALID,414.401,VALID,21.9818,VALID,36,VALID,0.305078,
2017-01-12, 18:44:04,VALID,917.776,VALID,0,INVALID,115.22,VALID,450.823,VALID,22.1964,VALID,45,VALID,0.0164062,
2017-01-12, 18:45:04,VALID,917.778,VALID,0,VALID,85.9769,VALID,426.541,VALID,22.3135,VALID,278,VALID,1.18711,
2017-01-12, 18:46:04,VALID,917.796,VALID,0,VALID,92.3272,VALID,457.484,VALID,22.2762,VALID,294,VALID,0,
2017-01-12, 18:47:04,VALID,917.736,VALID,0,VALID,86.4495,VALID,440.938,VALID,22.333,VALID,354,VALID,1.60312,
2017-01-12, 18:48:04,VALID,917.718,VALID,0,VALID,86.6859,VALID,459.956,VALID,22.2745,VALID,21,VALID,0.449609,
2017-01-12, 18:49:04,VALID,917.722,VALID,0,VALID,90.2231,VALID,447.492,VALID,22.333,VALID,359,VALID,0.246875,
2017-01-12, 18:50:04,VALID,917.69,VALID,0,VALID,90.5128,VALID,421.921,VALID,22.5086,VALID,39,VALID,0,
2017-01-12, 18:51:04,VALID,917.681,VALID,0,VALID,85.9693,VALID,387.003,VALID,22.6843,VALID,8,VALID,0.00078125,
2017-01-12, 18:52:04,VALID,917.658,VALID,0,VALID,84.1778,VALID,374.432,VALID,22.6257,VALID,33,VALID,0.369922,
2017-01-12, 18:53:04,VALID,917.612,VALID,0,VALID,84.5742,VALID,367.126,VALID,22.6452,VALID,3,VALID,0.638281,
2017-01-12, 18:54:04,VALID,917.645,VALID,0,VALID,85.0468,VALID,388.185,VALID,22.6647,VALID,347,VALID,0.0105469,
2017-01-12, 18:55:04,VALID,917.616,VALID,0,VALID,84.2387,VALID,396.35,VALID,22.6257,VALID,305,VALID,0.0195313,
2017-01-12, 18:56:04,VALID,917.65,VALID,0,VALID,85.7939,VALID,381.416,VALID,22.6062,VALID,31,VALID,0,
2017-01-12, 18:57:04,VALID,917.588,VALID,0,VALID,82.9123,VALID,389.152,VALID,22.5086,VALID,305,VALID,0.0375,
2017-01-12, 18:58:04,VALID,917.6,VALID,0,VALID,85.4204,VALID,396.458,VALID,22.5281,VALID,320,VALID,0,
2017-01-12, 18:59:04,VALID,917.549,VALID,0,VALID,83.2325,VALID,383.457,VALID,22.5281,VALID,223,VALID,0,
2017-01-12, 19:00:04,VALID,917.553,VALID,0,VALID,86.1675,VALID,378.515,VALID,22.5069,VALID,225,VALID,0,
2017-01-12, 19:01:04,VALID,917.541,VALID,0,VALID,83.6365,VALID,381.953,VALID,22.5069,VALID,299,VALID,0,
2017-01-12, 19:02:04,VALID,917.528,VALID,0,VALID,85.672,VALID,380.127,VALID,22.4501,VALID,306,VALID,0,
2017-01-12, 19:03:04,VALID,917.545,VALID,0,VALID,87.2424,VALID,380.019,VALID,22.5281,VALID,306,VALID,0,
2017-01-12, 19:04:04,VALID,917.494,VALID,0,VALID,85.0773,VALID,386.036,VALID,22.6647,VALID,306,VALID,0,
2017-01-12, 19:05:04,VALID,917.509,VALID,0,VALID,84.9782,VALID,390.226,VALID,22.6452,VALID,287,VALID,0.00195313,
2017-01-12, 19:06:04,VALID,917.535,VALID,0,VALID,85.954,VALID,390.978,VALID,22.5655,VALID,296,VALID,0.00078125,
2017-01-12, 19:07:04,VALID,917.476,VALID,0,VALID,85.2908,VALID,396.78,VALID,22.5459,VALID,202,VALID,0.135156,
2017-01-12, 19:08:04,VALID,917.427,VALID,0,VALID,84.3379,VALID,411.285,VALID,22.5086,VALID,29,VALID,0.0289063,
2017-01-12, 19:09:04,VALID,917.425,VALID,0,VALID,87.3948,VALID,422.029,VALID,22.4679,VALID,25,VALID,1.15117,
2017-01-12, 19:10:04,VALID,917.434,VALID,0,VALID,90.5433,VALID,425.682,VALID,22.5655,VALID,4,VALID,0.107422,
2017-01-12, 19:11:04,VALID,917.396,VALID,0,VALID,83.6365,VALID,426.219,VALID,22.6062,VALID,270,VALID,0,
2017-01-12, 19:12:04,VALID,917.359,VALID,0,VALID,85.7024,VALID,423.963,VALID,22.6062,VALID,39,VALID,1.08047,
2017-01-12, 19:13:04,VALID,917.365,VALID,0,VALID,87.7684,VALID,397.855,VALID,22.5477,VALID,14,VALID,0.692969,
2017-01-12, 19:14:04,VALID,917.393,VALID,0,VALID,86.7545,VALID,403.012,VALID,22.6062,VALID,353,VALID,0,
2017-01-12, 19:15:04,VALID,917.404,VALID,0,VALID,86.7621,VALID,443.517,VALID,22.7428,VALID,340,VALID,1.07461,
2017-01-12, 19:16:04,VALID,917.366,VALID,0,VALID,86.3733,VALID,474.782,VALID,22.8616,VALID,1,VALID,0,
2017-01-12, 19:17:04,VALID,917.357,VALID,0,VALID,83.08,VALID,493.585,VALID,22.9185,VALID,2,VALID,0,
2017-01-12, 19:18:04,VALID,917.353,VALID,0,VALID,84.7724,VALID,503.039,VALID,23.0551,VALID,22,VALID,0.310547,
2017-01-12, 19:19:04,VALID,917.327,VALID,0,VALID,82.7903,VALID,495.196,VALID,23.1527,VALID,341,VALID,0,
2017-01-12, 19:20:04,VALID,917.324,VALID,0,VALID,83.5908,VALID,436.963,VALID,23.1917,VALID,340,VALID,0,
2017-01-12, 19:21:04,VALID,917.32,VALID,0,VALID,81.5477,VALID,411.715,VALID,23.2698,VALID,356,VALID,0,
2017-01-12, 19:22:04,VALID,917.303,VALID,0,VALID,83.8347,VALID,504.973,VALID,23.2502,VALID,63,VALID,0,
2017-01-12, 19:23:04,VALID,917.329,VALID,0,VALID,83.9109,VALID,520.445,VALID,23.2875,VALID,330,VALID,0,
2017-01-12, 19:24:04,VALID,917.28,VALID,0,VALID,82.4625,VALID,566,VALID,23.3674,VALID,11,VALID,0.202734,
2017-01-12, 19:25:04,VALID,917.206,VALID,0,VALID,82.0661,VALID,587.918,VALID,23.4454,INVALID,360,VALID,0,
2017-01-12, 19:26:04,VALID,917.17,VALID,0,VALID,81.9822,VALID,479.617,VALID,23.504,VALID,360,VALID,0.623438,
2017-01-12, 19:27:04,VALID,917.177,VALID,0,VALID,81.3723,VALID,478.006,VALID,23.4454,VALID,5,VALID,0.389062,
2017-01-12, 19:28:04,VALID,917.16,VALID,0,VALID,82.1652,VALID,429.442,VALID,23.3691,VALID,24,VALID,0.41875,
2017-01-12, 19:29:04,VALID,917.143,VALID,0,VALID,82.2338,VALID,406.88,VALID,23.3088,VALID,32,VALID,0,
2017-01-12, 19:30:04,VALID,917.146,VALID,0,VALID,82.1804,VALID,592.538,VALID,23.2112,VALID,25,VALID,1.19219,
2017-01-12, 19:31:04,VALID,917.154,VALID,0,VALID,83.423,VALID,562.025,VALID,23.1331,VALID,343,VALID,0.0195313,
2017-01-12, 19:32:04,VALID,917.14,VALID,0,VALID,83.1943,VALID,634.547,VALID,23.2307,VALID,20,VALID,0,
2017-01-12, 19:33:04,VALID,917.155,VALID,0,VALID,82.1347,VALID,553.322,VALID,23.3674,VALID,316,VALID,0,
2017-01-12, 19:34:04,VALID,917.108,VALID,0,VALID,80.8463,VALID,460.923,VALID,23.4064,VALID,3,VALID,0.437891,
2017-01-12, 19:35:04,VALID,917.121,VALID,0,VALID,77.6826,VALID,630.035,VALID,23.4454,VALID,316,VALID,0.125,
2017-01-12, 19:36:04,VALID,917.094,VALID,0,VALID,79.6571,VALID,639.275,VALID,23.465,INVALID,360,VALID,0.0078125,
2017-01-12, 19:37:04,VALID,917.064,VALID,0,VALID,81.8145,VALID,663.664,VALID,23.5626,VALID,26,VALID,0.774219,
2017-01-12, 19:38:04,VALID,917.095,VALID,0,VALID,80.61,VALID,656.573,VALID,23.6602,VALID,25,VALID,0.257031,
2017-01-12, 19:39:04,VALID,917.085,VALID,0,VALID,79.5351,VALID,675.483,VALID,23.7578,VALID,15,VALID,0.742578,
2017-01-12, 19:40:04,VALID,917.083,VALID,0,VALID,80.7625,VALID,489.717,VALID,23.8731,VALID,335,VALID,0,
2017-01-12, 19:41:04,VALID,917.077,VALID,0,VALID,78.5898,VALID,438.038,VALID,23.9335,VALID,14,VALID,0.739453,
2017-01-12, 19:42:04,VALID,917.061,VALID,0,VALID,77.027,VALID,641.961,VALID,23.9139,VALID,262,VALID,0.369531,
2017-01-12, 19:43:04,VALID,917.055,VALID,0,VALID,80.0459,VALID,644.432,VALID,23.795,VALID,33,VALID,2.7375,
2017-01-12, 19:44:04,VALID,917.068,VALID,0,VALID,82.5845,VALID,436.963,VALID,23.8926,VALID,12,VALID,0.742188,
2017-01-12, 19:45:04,VALID,917.033,VALID,0,VALID,78.4831,VALID,401.185,VALID,23.9335,VALID,358,VALID,0.0457031,
2017-01-12, 19:46:04,VALID,917.012,VALID,0,VALID,78.3382,VALID,409.351,VALID,23.9139,VALID,360,VALID,0.0257812,
2017-01-12, 19:47:04,VALID,917.03,VALID,0,VALID,80.671,VALID,607.902,VALID,23.9512,VALID,352,VALID,0.000390625,
2017-01-12, 19:48:04,VALID,917.013,VALID,0,VALID,78.2849,VALID,627.241,VALID,23.9139,VALID,358,VALID,0.249609,
2017-01-12, 19:49:04,VALID,916.975,VALID,0,VALID,79.0929,VALID,559.016,VALID,23.7968,VALID,17,VALID,0.216016,
2017-01-12, 19:50:04,VALID,916.946,VALID,0,VALID,79.2225,VALID,486.064,VALID,23.7364,VALID,299,VALID,0.308594,
2017-01-12, 19:51:04,VALID,916.925,VALID,0,VALID,79.5046,VALID,565.463,VALID,23.8145,VALID,37,VALID,0.547266,
2017-01-12, 19:52:04,VALID,916.954,VALID,0,VALID,78.8947,VALID,344.779,VALID,23.953,VALID,278,VALID,0,
2017-01-12, 19:53:04,VALID,916.921,VALID,0,VALID,75.6777,VALID,355.415,VALID,23.9335,VALID,183,VALID,0,
2017-01-12, 19:54:04,VALID,916.884,VALID,0,VALID,77.3091,VALID,473.386,VALID,23.9121,VALID,142,VALID,0,
2017-01-12, 19:55:04,VALID,916.879,VALID,0,VALID,74.7552,VALID,542.363,VALID,24.0292,VALID,263,VALID,0,
2017-01-12, 19:56:04,VALID,916.899,VALID,0,VALID,74.4198,VALID,388.4,VALID,23.9335,VALID,301,VALID,0.214844,
2017-01-12, 19:57:04,VALID,916.899,VALID,0,VALID,79.0853,VALID,368.201,VALID,23.7755,VALID,299,VALID,0.244141,
2017-01-12, 19:58:04,VALID,916.885,VALID,0,VALID,77.4387,VALID,491.651,VALID,23.756,VALID,172,VALID,0,
2017-01-12, 19:59:04,VALID,916.822,VALID,0,VALID,77.5606,VALID,418.806,VALID,23.7755,VALID,21,VALID,1.42617,
2017-01-12, 20:00:04,VALID,916.82,VALID,0,VALID,79.4436,VALID,486.923,VALID,23.7755,VALID,336,VALID,0.147656,
2017-01-12, 20:01:04,VALID,916.802,VALID,0,VALID,78.8185,VALID,388.507,VALID,23.7382,VALID,295,VALID,0.238281,
2017-01-12, 20:02:04,VALID,916.807,VALID,0,VALID,79.0624,VALID,363.259,VALID,23.7755,VALID,9,VALID,0.484375,
2017-01-12, 20:03:04,VALID,916.794,VALID,0,VALID,77.3319,VALID,453.939,VALID,23.834,VALID,8,VALID,1.00703,
2017-01-12, 20:04:04,VALID,916.766,VALID,0,VALID,76.8898,VALID,394.631,VALID,23.7364,VALID,33,VALID,0.311719,
2017-01-12, 20:05:04,VALID,916.737,VALID,0,VALID,78.1629,VALID,367.771,VALID,23.6761,VALID,38,VALID,0.530859,
2017-01-12, 20:06:04,VALID,916.721,VALID,0,VALID,76.3028,VALID,326.621,VALID,23.7151,VALID,8,VALID,0.599609,
2017-01-12, 20:07:04,VALID,916.714,VALID,0,VALID,77.0575,VALID,320.282,VALID,23.5998,VALID,358,VALID,0,
2017-01-12, 20:08:04,VALID,916.705,VALID,0,VALID,78.6584,VALID,452.22,VALID,23.5412,VALID,25,VALID,0,
2017-01-12, 20:09:04,VALID,916.658,VALID,0,VALID,79.0777,VALID,426.326,VALID,23.6193,VALID,39,VALID,1.03359,
2017-01-12, 20:10:04,VALID,916.642,VALID,0,VALID,78.3687,VALID,457.27,VALID,23.6779,VALID,165,VALID,0.0816406,
2017-01-12, 20:11:04,VALID,916.644,VALID,0,VALID,80.2517,VALID,401.293,VALID,23.795,INVALID,360,VALID,0,
2017-01-12, 20:12:04,VALID,916.603,VALID,0,VALID,79.8782,VALID,500.139,VALID,23.9902,VALID,10,VALID,0,
2017-01-12, 20:13:04,VALID,916.586,VALID,0,VALID,77.9494,VALID,505.403,VALID,24.2049,VALID,18,VALID,0,
2017-01-12, 20:14:04,VALID,916.587,VALID,0,VALID,75.0906,VALID,506.692,VALID,24.3221,INVALID,360,VALID,0.0300781,
2017-01-12, 20:15:04,VALID,916.564,VALID,0,VALID,76.4019,VALID,460.385,VALID,24.2635,VALID,36,VALID,0.491797,
2017-01-12, 20:16:04,VALID,916.524,VALID,0,VALID,77.3624,VALID,466.724,VALID,24.1854,VALID,31,VALID,0.28125,
2017-01-12, 20:17:04,VALID,916.514,VALID,0,VALID,76.1808,VALID,339.621,VALID,24.1464,VALID,2,VALID,0.884375,
2017-01-12, 20:18:04,VALID,916.478,VALID,0,VALID,76.5925,VALID,344.564,VALID,24.1659,VALID,55,VALID,0.133203,
2017-01-12, 20:19:04,VALID,916.502,VALID,0,VALID,76.0207,VALID,472.419,VALID,24.1269,VALID,18,VALID,0.36875,
2017-01-12, 20:20:04,VALID,916.453,VALID,0,VALID,78.6508,VALID,483.807,VALID,24.0665,VALID,16,VALID,0.796875,
2017-01-12, 20:21:04,VALID,916.435,VALID,0,VALID,73.8328,VALID,447.492,VALID,24.0097,VALID,337,VALID,0.599609,
2017-01-12, 20:22:04,VALID,916.448,VALID,0,VALID,75.9521,VALID,477.039,VALID,23.9316,VALID,9,VALID,0.370313,
2017-01-12, 20:23:04,VALID,916.444,VALID,0,VALID,78.6889,VALID,473.601,VALID,23.9316,VALID,15,VALID,0,
2017-01-12, 20:24:04,VALID,916.436,VALID,0,VALID,76.7678,VALID,445.129,VALID,23.9316,VALID,20,VALID,0,
2017-01-12, 20:25:05,VALID,916.382,VALID,0,VALID,77.9189,VALID,436.641,VALID,24.0097,VALID,20,VALID,0.640234,
2017-01-12, 20:26:04,VALID,916.393,VALID,0,VALID,77.4768,VALID,468.014,VALID,24.0488,VALID,340,VALID,0.196094,
2017-01-12, 20:27:04,VALID,916.358,VALID,0,VALID,76.9813,VALID,471.882,VALID,24.0878,VALID,359,VALID,0,
2017-01-12, 20:28:05,VALID,916.357,VALID,0,VALID,75.853,VALID,471.882,VALID,24.0665,VALID,12,VALID,0.573438,
2017-01-12, 20:29:05,VALID,916.289,VALID,0,VALID,75.0373,VALID,473.171,VALID,24.1464,VALID,354,VALID,0,
2017-01-12, 20:30:05,VALID,916.294,VALID,0,VALID,76.7983,VALID,457.914,VALID,24.2245,VALID,15,VALID,0,
2017-01-12, 20:31:05,VALID,916.287,VALID,0,VALID,75.7539,VALID,456.947,VALID,24.2031,VALID,278,VALID,0.517578,
2017-01-12, 20:32:05,VALID,916.305,VALID,0,VALID,78.2467,VALID,458.989,VALID,24.1073,VALID,11,VALID,0.00234375,